Вернуться в каталог

USA 160 DEB

АктивенLEO
NORAD 26907·DEBRIS·🇺🇸 United States

Запущен Sep 8, 2001 с Vandenberg Space Force Base

Loading…

Ближайшие Пролёты (ближайшие 24 часа)

TLE

УстаревшееSource: Mike McCants

Эпоха: Aug 7, 2026, 20:14 UTC

1 26907U 01040C   26219.84323025 0.00000600  00000-0  27679-3 0    09
2 26907  63.3647 102.4104 0664834  13.7311 346.2688 13.42373489    05

Отслеживайте USA 160 DEB в реальном времени с AllMySat

Download on the App Store